Powrót do katalogu

THOR BURNER 2A R/B

AktywnySSO
NORAD 7412·ROCKET BODY·🇺🇸 United States

Wystrzelony Aug 9, 1974 z Vandenberg Space Force Base

Loading…

Następne Przeloty (najbliższe 24 godziny)

TLE

ŚwieżeSource: Space-Track

Epoka: Sep 14, 2026, 20:12 UTC

1 07412U 74063B   26257.84169012  .00000050  00000-0  40209-4 0  9991
2 07412  98.5826  96.5487 0046009  69.0990 291.5106 14.23771217701833

Śledź THOR BURNER 2A R/B w czasie rzeczywistym z AllMySat

Download on the App Store